This demonstration page uses our WeatherBlox Daily Observations layout. Learn more.

Left ArrowRight Arrow

Hourly Observations for May 3, 2018

Temp ( °F °C ) Dew Point ( °F °C ) Humidity (%) Winds ( mph kmh ) Pressure ( in mb ) Visibility ( mi km ) Precip ( " mm )
12:53 am 00:53 Clear 74 23.3 60 15.6 62 62 SSW 6 9 30.04 1017 10 16 0.00 0.00
1:53 am 01:53 Mostly Clear 72 22.2 60 15.6 66 66 SSW 3 6 30.05 1018 10 16 0.00 0.00
2:53 am 02:53 Mostly Clear 72 22.2 59 15 64 64 SW 5 7 30.04 1017 10 16 0.00 0.00
3:53 am 03:53 Partly Cloudy 72 22.2 59 15 64 64 SW 7 11 30.04 1017 10 16 0.00 0.00
4:53 am 04:53 Partly Cloudy 71 21.7 59 15 66 66 SW 5 7 30.04 1017 10 16 0.00 0.00
5:53 am 05:53 Mostly Cloudy 72 22.2 59 15 64 64 VRB 6 9 30.03 1017 10 16 0.00 0.00
6:53 am 06:53 Partly Cloudy 72 22.2 58 14.4 61 61 SSW 7 11 30.03 1017 10 16 0.00 0.00
7:53 am 07:53 Sunny 72 22.2 58 14.4 61 61 SSW 7 11 30.04 1017 10 16 0.00 0.00
8:53 am 08:53 Sunny 74 23.3 58 14.4 57 57 SSW 10 17 30.04 1017 10 16 0.00 0.00
9:53 am 09:53 Sunny 76 24.4 59 15 56 56 SW 12 19 30.04 1017 10 16 0.00 0.00
10:53 am 10:53 Sunny 79 26.1 60 15.6 52 52 SW 13 20 30.04 1017 10 16 0.00 0.00
11:53 am 11:53 Cloudy with Light Rain 69 20.6 63 17.2 81 81 WSW 17 28 30.10 1019 6 10 0.02 0.51
12:53 pm 12:53 Sunny 73 22.8 64 17.8 74 74 SSW 7 11 30.05 1018 10 16 0.00 0.03
1:53 pm 13:53 Mostly Sunny 77 25 64 17.8 64 64 SW 8 13 30.04 1017 10 16 0.00 0.00
2:53 pm 14:53 Partly Cloudy 78 25.6 62 16.7 58 58 SW 15 24 30.05 1018 10 16 0.00 0.00
3:53 pm 15:53 Mostly Cloudy 79 26.1 62 16.7 56 56 SW 13 20 30.04 1017 10 16 0.00 0.00
4:53 pm 16:53 Mostly Sunny 80 26.7 62 16.7 54 54 WSW 10 17 30.04 1017 10 16 0.00 0.00
5:53 pm 17:53 Partly Cloudy 79 26.1 62 16.7 56 56 WSW 10 17 30.04 1017 10 16 0.00 0.00
6:53 pm 18:53 Cloudy 74 23.3 63 17.2 69 69 SSW 8 13 30.05 1018 10 16 0.00 0.03
7:53 pm 19:53 Mostly Cloudy 73 22.8 63 17.2 71 71 SW 7 11 30.05 1018 10 16 0.00 0.03
8:53 pm 20:53 Cloudy 72 22.2 63 17.2 73 73 Calm 30.05 1018 10 16 0.00 0.00
9:53 pm 21:53 Mostly Cloudy with Light Rain 70 21.1 64 17.8 82 82 Calm 30.04 1017 10 16 0.00 0.03
10:53 pm 22:53 Partly Cloudy 71 21.7 63 17.2 76 76 SSW 3 6 30.02 1017 10 16 0.00 0.03
11:53 pm 23:53 Clear 71 21.7 62 16.7 73 73 VRB 5 7 29.96 1015 10 16 0.00 0.00

Powered by AerisWeather